User: anonymous
Location: Albany
(35.0000°S, 118.0000°E)
Time: 18:07:41
(UTC-04:00)
Language:

Atlas Centaur 2 - Orbit

View from above orbital plane
View from above orbital plane
View from above satellite
View from above satellite

Ground track
Ground track

The orbit data is extracted from the following two-line orbital elements,

1 00694U 63047A   14241.47565509  .00003356  00000-0  43697-3 0  5773
2 00694 030.3588 024.6467 0597533 169.5633 260.3029 13.99691058539169
Epoch (UTC): 29 August 2014 11:24:56
Eccentricity: 0.0597533
inclination: 30.3588°
perigee height: 460 km
apogee height: 1329 km
right ascension of ascending node: 24.6467°
argument of perigee: 169.5633°
revolutions per day: 13.99691058
mean anomaly at epoch: 260.3029°
orbit number at epoch: 53916

The dashed part of the orbit path shows where the satellite is in the earth's shadow,  

DLR